Wetbulb
53.97 53.69 53.46 52.89 52.68 53.11 53.14 52.81 52.66 53.21 52.76 52.88 52.63 52.29 52.71 51.89 46.45 42.18 38.67 45.21 46.99 51.49 46.23 37.53 36.69 35.79 35.55 34.72 36.74 42.67 34.23 28.72 28.94 25.55 25.40 29.84 28.76 32.87 34.02 32.98 33.01 35.06 34.75 37.39 39.60
53.29 52.93 52.84 52.31 52.33 52.86 52.94 52.51 53.36 53.42 52.93 53.21 52.59 52.46 52.52 52.19 38.78 34.84 48.00 50.98 51.08 49.78 36.66 33.83 32.01 33.25 29.30 30.15 30.65 31.89 31.53 25.39 29.47 29.04 26.32 29.26 29.32 30.15 29.18 29.51 31.71 32.62 35.14 36.58 37.56
52.86 52.67 52.32 51.65 51.95 52.62 52.49 52.24 52.73 52.48 51.84 52.34 53.00 52.55 50.86 49.49 32.87 32.24 49.63 50.04 49.81 44.44 37.39 35.78 33.93 31.49 26.60 27.90 26.78 25.04 23.13 28.03 29.61 31.00 30.35 28.83 28.51 30.52 28.14 27.36 29.28 28.69 30.77 34.02 35.20
52.51 52.32 52.09 51.24 51.30 51.84 52.59 52.73 52.56 52.64 52.40 50.41 50.57 50.92 45.99 36.46 24.59 33.76 48.97 48.79 47.69 40.39 36.54 33.54 30.47 26.07 22.96 22.11 27.28 21.71 27.27 28.11 28.31 29.30 28.12 26.15 28.56 25.91 27.27 26.50 30.62 31.29 32.75 33.50 33.34
51.84 51.55 51.27 50.98 50.49 50.67 51.13 51.92 51.34 51.51 52.29 50.66 48.64 49.09 37.53 29.16 28.84 38.11 47.05 42.90 37.99 36.83 33.47 31.24 27.63 25.23 21.45 23.33 25.20 22.11 24.97 27.66 28.10 27.69 27.00 28.03 25.15 24.16 25.40 28.94 30.06 32.01 32.60 31.93 32.82
51.57 51.07 50.37 50.43 49.82 50.21 49.89 50.63 51.30 50.69 50.15 50.83 47.89 44.47 33.25 24.11 35.95 37.05 37.13 36.00 35.67 34.42 32.51 31.71 28.52 28.43 23.70 23.65 21.97 25.28 25.57 25.55 26.75 26.31 26.49 24.31 23.89 24.25 25.20 28.59 29.53 30.67 30.51 31.73 32.37
51.34 50.63 49.91 49.67 49.31 49.90 49.46 49.03 49.20 49.85 49.02 49.70 47.57 39.14 31.91 28.75 36.33 36.64 36.39 34.81 35.34 34.62 31.62 33.09 31.93 28.54 25.24 23.02 26.79 26.02 21.51 22.69 23.94 25.35 23.98 25.67 21.06 20.91 25.80 28.07 27.10 28.77 30.17 31.27 32.39
50.81 50.40 49.51 49.30 49.09 49.38 49.28 48.25 48.99 49.48 49.54 48.27 45.80 34.59 27.75 38.14 36.27 36.34 35.41 34.83 36.09 36.00 34.39 34.53 33.54 29.61 26.41 26.33 23.02 19.43 19.46 14.80 22.96 24.38 25.28 23.26 14.74 23.24 28.09 25.20 26.45 27.43 29.10 30.49 31.60
50.53 49.96 49.29 49.11 49.00 48.62 48.75 47.42 48.14 47.69 48.09 44.24 34.81 30.69 26.52 39.75 33.93 35.04 34.10 32.59 33.48 34.62 34.62 37.19 32.07 25.11 25.20 18.13 13.84 15.55 7.55 14.34 18.80 24.25 23.40 21.19 16.58 22.71 27.57 26.58 25.05 26.61 27.59 29.18 30.30
49.93 49.21 48.93 48.77 48.59 47.76 48.18 47.01 45.70 42.73 39.98 38.41 35.86 28.21 30.98 29.55 33.38 35.28 35.53 34.19 31.07 30.37 29.33 27.84 24.27 20.45 17.95 16.51 4.93 11.03 9.21 12.88 14.60 21.30 21.72 18.81 18.05 23.46 26.08 25.89 23.75 22.35 22.90 25.03 26.53
49.41 48.60 48.44 48.27 46.89 46.46 40.89 35.33 32.11 29.85 31.19 27.57 28.09 28.55 30.68 34.03 35.91 33.91 34.80 31.36 29.79 25.88 18.43 23.35 18.14 13.43 15.47 16.96 17.86 14.93 9.26 11.07 16.76 22.04 19.36 18.29 18.38 20.82 23.25 21.82 20.06 20.02 21.15 23.57 25.14
49.09 48.30 47.88 47.11 45.92 45.00 37.68 31.76 31.51 31.48 25.52 31.88 31.59 31.27 32.87 32.88 28.33 31.48 34.06 26.00 23.78 18.31 20.95 19.03 12.84 18.83 22.44 22.44 20.04 17.97 13.81 11.19 17.61 21.73 20.34 17.63 15.89 19.56 21.56 20.89 21.48 21.02 21.59 22.97 24.19
48.72 48.09 47.61 47.11 44.03 37.11 33.88 32.97 37.91 36.05 25.16 28.59 31.46 30.33 30.50 32.12 27.05 27.21 29.53 25.47 20.04 18.05 16.64 13.04 18.10 23.28 22.36 19.74 18.03 16.53 12.86 12.45 13.84 18.94 17.81 15.04 10.46 14.85 18.56 20.52 21.51 21.84 22.68 23.86 23.54
48.24 47.83 46.78 46.18 37.02 32.67 30.68 35.76 37.79 35.98 21.82 24.08 26.82 29.41 31.76 30.04 24.91 31.87 31.67 26.10 21.60 15.99 18.00 15.63 21.63 21.04 19.94 18.61 18.76 12.32 19.83 18.75 16.50 10.17 -1.95 14.64 -1.15 10.35 13.90 16.96 18.80 19.84 21.26 22.03 23.02
47.80 47.34 45.26 42.76 32.58 30.34 33.72 36.32 36.22 33.01 14.74 26.19 26.46 34.22 30.93 26.16 26.05 27.48 31.47 26.06 17.58 18.68 15.50 14.14 16.63 17.26 17.70 18.87 20.88 15.53 20.86 17.69 15.91 4.30 0.47 7.54 0.36 6.65 13.37 12.98 16.02 18.73 20.65 21.77 23.04
47.28 46.73 43.46 36.70 33.19 33.85 35.36 36.15 32.58 23.37 12.42 22.61 25.39 24.09 23.23 24.88 24.67 26.61 25.23 26.06 24.72 19.44 19.12 16.41 22.05 19.95 19.38 22.22 21.87 22.16 16.83 14.53 11.56 5.35 -6.44 0.24 -0.94 4.72 8.56 13.04 15.65 18.43 19.89 21.44 22.19
46.92 46.10 41.65 37.21 30.75 34.85 36.12 30.78 23.81 17.53 24.29 21.58 18.79 22.63 21.21 19.74 21.46 21.62 19.77 12.03 10.73 4.95 8.00 14.42 16.81 19.79 22.73 15.50 20.30 17.20 6.25 -6.00 -5.83 -7.06 -4.82 7.23 5.31 4.53 12.91 16.52 17.40 17.28 18.46 20.54 21.81
46.47 42.99 39.88 37.58 35.02 33.82 30.85 25.04 18.18 20.29 18.15 23.58 21.71 20.89 17.19 19.18 18.67 18.51 16.59 11.63 15.22 7.65 3.82 3.99 4.63 15.29 20.98 10.04 6.47 13.93 2.59 -2.59 -8.07 -1.84 2.16 10.86 -0.76 5.40 15.51 19.95 20.69 20.41 20.08 20.94 20.52
43.24 33.78 33.26 34.45 35.84 32.79 26.54 16.35 15.80 17.41 21.41 19.60 19.83 14.91 14.49 18.23 15.76 14.67 10.79 6.53 8.36 6.62 2.46 1.05 7.21 18.87 21.51 21.54 13.36 12.13 3.47 13.67 2.46 3.75 -1.19 3.66 5.00 7.39 16.30 17.44 18.23 17.58 19.07 18.09 19.77
32.59 30.94 30.90 35.27 34.66 29.29 23.14 19.80 18.99 23.46 23.78 21.62 12.27 15.20 8.20 12.54 11.69 9.32 8.99 8.09 11.83 13.24 11.42 7.55 1.98 16.67 19.44 21.48 19.49 13.60 16.33 2.89 -1.04 -4.03 -5.83 3.82 1.65 2.59 8.98 12.94 15.26 15.34 15.72 17.61 19.77
30.88 27.89 32.45 34.30 31.59 26.08 16.07 16.14 21.46 25.21 24.99 20.17 15.50 11.30 6.54 8.45 11.61 7.27 5.35 14.20 14.30 17.33 13.81 3.69 6.86 9.39 15.57 8.53 3.20 12.11 3.90 8.14 6.37 7.04 0.75 -1.21 4.24 9.38 13.72 14.85 14.46 15.22 16.55 18.08 19.93
28.76 26.65 33.09 32.49 24.24 20.62 16.03 21.25 26.62 23.43 24.11 22.56 19.84 13.13 10.14 12.73 7.52 9.71 10.77 14.50 18.20 16.84 7.08 13.23 4.52 0.34 6.07 10.72 12.41 15.78 9.80 6.06 3.98 3.22 6.71 4.58 3.76 19.00 17.57 16.33 16.68 15.55 17.31 19.52 22.02
26.77 27.14 33.13 30.44 18.99 16.65 20.63 22.53 23.85 21.94 21.44 21.27 18.85 20.47 16.39 13.67 5.48 12.10 15.15 22.31 21.55 19.17 8.33 12.68 0.61 -1.79 -0.27 5.90 12.22 8.36 12.73 11.29 10.65 10.87 3.89 0.37 0.59 19.10 16.38 15.88 16.18 15.51 17.15 19.40 21.12
28.17 23.53 26.88 25.65 22.83 17.22 14.19 19.47 19.83 24.49 22.42 23.19 20.59 20.51 16.90 13.59 15.76 10.33 14.67 20.60 22.08 20.46 27.10 19.59 3.40 1.07 -3.34 3.67 8.24 8.43 12.87 10.65 9.12 3.60 4.23 3.45 5.34 10.22 12.66 13.03 14.22 15.62 17.88 19.73 19.87
26.92 20.63 23.23 17.52 20.46 18.88 17.72 17.04 19.04 18.60 21.16 21.59 18.61 18.91 9.94 5.78 12.06 11.93 15.43 16.44 19.39 22.25 18.48 11.43 3.87 9.70 11.14 12.59 10.36 6.62 7.83 7.27 5.47 7.26 2.77 5.49 5.22 9.36 12.52 12.84 14.27 16.80 18.29 18.35 18.43
24.67 22.41 20.11 17.74 21.72 19.46 20.53 16.55 19.11 18.95 15.89 17.75 16.53 18.36 16.38 7.86 11.51 8.13 13.92 13.31 12.87 15.92 14.96 14.86 7.19 10.79 5.46 10.96 2.17 5.95 9.45 8.57 7.92 6.61 7.37 6.29 4.58 13.98 14.69 15.26 15.14 15.94 18.14 16.93 17.93
29.41 29.01 24.29 20.57 18.24 16.68 17.39 18.60 18.82 19.72 20.81 22.17 19.61 15.30 15.22 17.87 18.96 19.19 18.78 18.71 17.51 13.05 12.43 9.47 8.60 5.25 1.33 9.65 9.19 2.06 -2.15 5.53 6.94 9.46 8.74 3.11 8.21 12.77 11.10 12.69 13.98 16.65 17.53 17.15 18.42
MSLP
1022.61 1022.35 1022.09 1021.84 1021.55 1021.22 1020.94 1020.68 1020.57 1020.38 1020.35 1020.24 1020.20 1020.29 1020.25 1020.30 1020.37 1019.67 1019.67 1021.05 1020.40 1019.78 1019.62 1019.19 1018.53 1018.21 1017.72 1017.91 1017.93 1017.75 1018.44 1018.54 1018.66 1018.71 1019.04 1018.99 1018.70 1017.94 1017.67 1017.18 1016.90 1016.39 1016.45 1016.15 1015.46
1022.84 1022.53 1022.22 1021.97 1021.69 1021.35 1020.96 1020.78 1020.68 1020.47 1020.39 1020.31 1020.35 1020.42 1020.41 1020.35 1020.58 1020.91 1021.36 1020.96 1020.45 1019.96 1019.99 1019.78 1019.33 1019.01 1018.95 1019.11 1019.25 1019.29 1019.41 1019.69 1019.96 1019.83 1019.86 1019.53 1019.35 1018.82 1018.36 1017.86 1016.79 1016.39 1016.48 1016.27 1015.60
1023.04 1022.73 1022.44 1022.15 1021.89 1021.58 1021.07 1021.00 1020.89 1020.68 1020.55 1020.53 1020.53 1020.58 1020.49 1020.43 1021.15 1022.23 1021.53 1021.13 1020.65 1020.43 1020.25 1020.02 1019.80 1019.66 1020.13 1020.41 1020.91 1020.86 1020.60 1020.48 1020.38 1020.38 1020.47 1020.17 1019.75 1019.36 1018.87 1017.86 1017.81 1017.35 1016.85 1016.25 1015.83
1023.22 1022.95 1022.67 1022.38 1022.16 1021.90 1021.56 1021.34 1021.27 1021.14 1020.89 1020.66 1020.58 1020.59 1020.57 1020.69 1022.87 1023.04 1022.06 1021.56 1021.04 1020.74 1020.52 1020.40 1020.37 1020.77 1021.44 1021.78 1021.77 1021.56 1021.34 1021.14 1020.84 1020.66 1020.68 1020.52 1020.42 1020.03 1019.64 1019.15 1018.50 1017.96 1017.30 1016.78 1016.34
1023.40 1023.13 1022.89 1022.62 1022.35 1022.11 1021.93 1021.75 1021.58 1021.46 1021.27 1020.96 1020.96 1020.83 1021.04 1022.58 1023.81 1023.30 1022.45 1022.06 1021.53 1021.21 1021.14 1021.16 1021.41 1021.79 1022.14 1022.31 1022.20 1022.05 1021.86 1021.63 1021.39 1021.14 1020.97 1020.60 1020.76 1020.68 1020.00 1019.06 1018.45 1017.54 1016.60 1016.89 1016.53
1023.58 1023.35 1023.10 1022.80 1022.54 1022.26 1022.10 1021.92 1021.80 1021.65 1021.49 1021.27 1021.26 1021.24 1021.85 1023.60 1023.87 1023.43 1022.91 1022.35 1021.99 1021.69 1021.50 1021.47 1021.67 1021.87 1022.36 1022.62 1022.69 1022.39 1022.25 1022.04 1021.60 1021.47 1021.02 1020.78 1020.72 1020.56 1019.48 1019.10 1018.63 1018.12 1016.84 1016.32 1016.45
1023.74 1023.48 1023.18 1022.88 1022.72 1022.45 1022.11 1021.97 1021.91 1021.78 1021.68 1021.45 1021.49 1021.80 1022.98 1024.46 1023.90 1023.33 1022.89 1022.63 1022.33 1022.09 1021.80 1021.59 1021.64 1022.00 1022.55 1022.86 1022.81 1022.77 1022.90 1022.58 1022.11 1021.69 1021.35 1020.96 1020.55 1020.29 1019.53 1019.13 1018.84 1018.29 1017.37 1016.06 1016.07
1023.87 1023.57 1023.27 1022.99 1022.81 1022.52 1022.20 1022.02 1022.02 1021.84 1021.65 1021.53 1021.69 1022.18 1023.66 1023.84 1023.71 1023.48 1023.10 1022.40 1021.91 1021.89 1021.78 1021.54 1021.71 1022.25 1023.00 1023.35 1023.53 1023.79 1023.78 1023.68 1022.60 1021.99 1021.52 1021.59 1019.50 1019.79 1019.51 1019.16 1018.50 1018.19 1017.50 1016.35 1015.69
1023.98 1023.67 1023.36 1023.07 1022.81 1022.48 1022.24 1022.13 1022.13 1021.88 1021.70 1021.71 1022.15 1022.59 1024.16 1023.79 1023.80 1023.66 1023.51 1023.43 1022.71 1022.25 1021.89 1021.60 1022.13 1023.47 1023.95 1024.65 1025.16 1025.46 1025.53 1024.52 1023.08 1022.10 1021.71 1021.87 1019.29 1019.70 1019.26 1018.84 1018.24 1018.13 1017.64 1016.82 1015.79
1024.06 1023.76 1023.48 1023.18 1022.82 1022.48 1022.27 1022.30 1022.29 1022.01 1022.22 1022.18 1022.90 1023.84 1024.57 1025.07 1024.70 1024.36 1023.60 1023.54 1023.49 1023.20 1022.80 1023.27 1023.82 1024.73 1025.47 1025.92 1026.92 1026.43 1025.91 1025.20 1023.92 1021.98 1021.76 1021.23 1019.82 1019.05 1018.38 1018.06 1018.30 1018.52 1018.28 1017.75 1017.15
1024.14 1023.89 1023.62 1023.33 1022.95 1022.61 1022.69 1022.83 1023.38 1023.47 1023.93 1024.72 1025.51 1025.50 1025.68 1025.33 1024.75 1024.79 1024.24 1024.06 1024.22 1024.62 1025.37 1025.17 1025.51 1026.07 1026.47 1026.53 1026.55 1026.56 1026.12 1025.26 1023.68 1022.33 1021.80 1021.07 1019.87 1019.01 1017.86 1018.16 1018.78 1019.00 1018.86 1018.39 1017.83
1024.30 1024.02 1023.62 1023.38 1023.24 1023.04 1023.39 1024.62 1025.31 1025.36 1025.69 1025.57 1025.56 1025.67 1025.65 1025.67 1025.57 1025.59 1025.24 1025.21 1025.70 1026.38 1026.24 1026.12 1026.32 1026.47 1026.19 1026.01 1026.25 1026.26 1025.84 1024.81 1022.88 1022.51 1022.36 1020.87 1020.41 1020.02 1019.03 1018.97 1019.06 1019.23 1019.06 1018.63 1017.83
1024.44 1024.08 1023.61 1023.24 1023.41 1023.89 1024.88 1025.67 1025.56 1025.30 1025.60 1026.05 1025.89 1025.88 1025.93 1026.01 1026.39 1026.51 1026.30 1026.07 1026.68 1027.12 1027.63 1027.57 1026.94 1026.45 1026.08 1025.90 1025.94 1025.91 1025.67 1024.97 1024.99 1022.16 1022.21 1021.74 1020.99 1020.47 1019.87 1019.54 1019.48 1019.46 1019.31 1018.84 1018.25
1024.56 1024.23 1023.82 1023.48 1024.00 1025.04 1025.49 1025.64 1025.53 1025.49 1026.09 1027.07 1026.42 1026.59 1026.37 1026.20 1026.82 1026.93 1026.64 1027.08 1027.42 1028.12 1028.22 1028.02 1027.30 1026.90 1026.29 1026.06 1026.11 1025.56 1025.47 1025.06 1024.42 1024.55 1024.39 1023.59 1023.37 1021.48 1020.57 1019.97 1019.82 1019.42 1018.88 1018.38 1017.77
1024.67 1024.41 1024.18 1023.49 1025.02 1025.49 1025.74 1025.60 1025.56 1025.78 1026.98 1027.50 1027.24 1027.05 1027.25 1027.65 1028.31 1027.79 1027.64 1027.50 1028.53 1029.01 1029.43 1028.67 1027.93 1027.52 1027.06 1026.81 1026.39 1026.01 1025.61 1024.41 1024.88 1025.46 1026.06 1025.23 1025.18 1021.90 1021.25 1020.65 1020.28 1019.61 1019.13 1018.42 1017.75
1024.82 1024.59 1024.45 1024.73 1025.37 1025.62 1025.62 1025.65 1025.94 1026.36 1027.69 1028.17 1028.23 1028.59 1028.69 1028.92 1029.23 1029.02 1028.96 1028.74 1029.16 1029.76 1029.67 1029.31 1028.42 1028.29 1027.78 1027.21 1026.86 1026.69 1025.85 1025.03 1025.62 1026.48 1027.15 1026.31 1026.20 1022.98 1022.09 1021.57 1020.86 1020.30 1019.57 1018.62 1017.45
1024.89 1024.73 1024.62 1025.08 1025.65 1025.62 1025.78 1026.18 1026.67 1027.71 1028.95 1029.54 1030.05 1030.13 1030.38 1030.64 1030.50 1030.58 1030.85 1031.14 1031.88 1032.05 1031.88 1030.67 1029.14 1028.34 1027.98 1028.02 1027.43 1027.93 1027.23 1027.74 1027.84 1028.08 1027.35 1025.89 1025.56 1022.41 1021.59 1021.24 1020.70 1019.54 1018.52 1018.06 1017.12
1024.92 1024.91 1025.08 1025.11 1025.44 1025.71 1026.18 1026.51 1027.97 1030.44 1030.61 1031.05 1031.12 1031.18 1031.67 1032.00 1032.05 1032.25 1032.69 1033.53 1033.71 1034.46 1034.34 1033.34 1030.43 1029.38 1028.90 1029.15 1029.74 1029.78 1030.48 1031.56 1031.67 1029.62 1026.91 1025.59 1024.54 1021.81 1021.36 1020.85 1020.03 1019.27 1018.52 1017.36 1016.39
1024.99 1025.50 1025.38 1025.48 1025.47 1025.83 1026.31 1028.50 1031.04 1031.54 1031.98 1032.22 1032.22 1032.61 1033.00 1033.30 1033.95 1033.94 1034.42 1035.09 1035.31 1035.26 1035.52 1034.32 1032.19 1030.03 1029.69 1029.40 1030.26 1030.69 1031.37 1031.54 1031.46 1029.36 1028.46 1025.21 1023.06 1021.47 1021.10 1020.66 1020.42 1019.33 1018.14 1017.11 1015.82
1025.64 1025.93 1025.91 1025.62 1025.58 1026.00 1027.19 1030.89 1031.91 1032.04 1032.34 1032.88 1033.65 1034.35 1035.04 1034.90 1035.24 1035.31 1035.44 1035.34 1035.45 1035.19 1034.95 1035.24 1033.78 1030.88 1030.08 1030.08 1030.72 1031.19 1031.92 1032.02 1032.17 1030.77 1028.39 1024.89 1023.34 1022.27 1021.28 1020.08 1019.77 1018.58 1017.72 1016.31 1014.76
1025.99 1026.57 1025.97 1025.64 1025.74 1026.95 1030.46 1031.91 1032.22 1032.37 1032.68 1033.33 1034.00 1035.05 1035.75 1036.18 1035.98 1036.27 1035.87 1035.11 1035.04 1034.89 1035.08 1035.45 1035.43 1032.61 1031.55 1031.38 1031.80 1031.88 1032.58 1032.76 1032.57 1031.26 1029.42 1026.04 1022.92 1022.02 1021.49 1020.87 1019.79 1018.70 1017.55 1016.09 1014.47
1026.56 1026.92 1026.33 1025.83 1027.41 1030.18 1032.04 1032.25 1032.50 1032.70 1032.93 1033.41 1034.10 1034.98 1035.91 1036.21 1036.45 1036.05 1035.58 1034.71 1034.41 1034.56 1035.04 1034.99 1035.07 1034.55 1032.67 1032.34 1032.11 1032.16 1032.64 1032.86 1032.38 1030.43 1029.41 1027.68 1023.40 1021.48 1021.50 1021.30 1020.56 1018.95 1017.28 1015.60 1013.87
1027.67 1027.69 1026.65 1026.55 1029.72 1032.06 1032.75 1032.91 1032.94 1033.16 1033.43 1033.84 1034.41 1035.08 1035.70 1036.05 1036.36 1035.64 1034.85 1033.59 1033.63 1034.02 1034.32 1034.71 1035.12 1034.82 1033.56 1033.19 1032.47 1032.21 1032.40 1032.59 1032.28 1030.95 1029.29 1028.06 1023.63 1021.69 1021.86 1021.30 1020.23 1018.78 1016.69 1014.92 1013.14
1028.16 1029.24 1029.09 1029.71 1031.60 1032.31 1033.14 1033.41 1033.45 1033.43 1033.77 1034.11 1034.53 1035.07 1035.53 1035.78 1035.73 1035.42 1034.72 1033.61 1033.36 1033.42 1033.19 1033.74 1035.16 1035.55 1034.96 1033.81 1033.00 1032.55 1032.18 1032.49 1032.34 1031.25 1029.36 1027.76 1024.12 1022.79 1021.97 1020.64 1019.05 1017.32 1016.12 1014.51 1012.93
1029.04 1031.16 1031.66 1032.60 1032.74 1032.89 1033.18 1033.60 1033.72 1033.84 1034.05 1034.31 1034.74 1035.15 1035.80 1036.22 1035.73 1035.33 1034.69 1034.06 1033.39 1033.25 1033.51 1034.41 1034.86 1034.43 1033.68 1032.68 1032.38 1032.13 1032.43 1032.42 1032.25 1031.38 1030.36 1026.87 1026.29 1024.39 1023.18 1021.63 1019.93 1017.94 1015.96 1014.09 1012.14
1029.56 1031.02 1032.54 1033.28 1033.32 1033.48 1033.73 1033.99 1033.92 1034.09 1034.34 1034.45 1034.72 1035.03 1035.47 1035.81 1035.42 1035.10 1034.85 1034.67 1034.17 1033.79 1034.06 1034.55 1034.57 1034.05 1032.80 1032.09 1032.22 1032.14 1032.38 1031.98 1031.41 1030.59 1029.73 1028.31 1026.83 1025.91 1023.70 1022.07 1019.55 1017.98 1015.91 1013.96 1012.03
1029.72 1030.62 1031.36 1033.88 1033.81 1033.83 1033.80 1033.85 1034.09 1034.22 1034.25 1034.19 1034.43 1034.78 1034.80 1034.60 1034.54 1034.24 1034.17 1034.13 1034.15 1034.52 1034.87 1035.17 1035.09 1034.74 1033.63 1032.57 1032.46 1032.88 1032.80 1032.13 1031.06 1030.31 1029.88 1028.69 1027.26 1025.06 1022.96 1021.28 1019.04 1017.56 1015.98 1014.21 1012.48
Wind_Speed
14 15 15 15 16 15 13 11 10 8 8 6 4 3 4 5 19 20 21 18 20 22 19 11 9 10 4 3 5 2 3 2 4 6 4 6 9 1 4 4 7 1 2 9 15
14 15 15 16 16 15 14 12 11 12 8 7 6 5 4 5 6 20 19 24 25 22 8 8 10 10 4 6 5 5 1 4 4 5 6 10 7 12 5 8 4 9 9 12 13
14 15 15 16 17 15 15 13 12 13 11 10 8 5 5 1 6 7 23 27 23 16 6 4 6 4 5 4 6 5 1 3 4 8 10 8 8 7 10 5 6 14 16 18 14
14 15 15 14 16 14 12 13 13 14 14 13 5 5 10 5 5 6 24 26 20 11 7 6 7 5 5 4 4 3 2 3 6 8 5 5 7 7 5 6 14 13 12 11 14
14 15 15 14 15 12 10 9 8 11 12 13 13 7 6 9 5 8 22 17 9 7 5 6 8 4 4 4 5 2 4 6 7 7 7 6 5 4 14 15 11 16 20 11 10
15 15 15 13 13 13 9 9 9 10 10 10 10 7 7 10 7 8 10 10 6 6 5 4 3 1 2 3 2 3 5 8 5 4 6 6 6 3 4 6 11 14 20 19 13
15 15 15 13 12 13 9 7 8 11 7 9 7 5 12 6 4 8 6 6 5 4 5 3 1 6 3 5 4 6 6 5 5 5 7 7 5 5 5 8 9 14 17 22 17
15 15 16 13 12 13 9 5 8 10 7 7 8 5 6 2 2 8 10 10 10 4 2 4 3 4 4 5 7 5 4 7 8 10 6 3 13 5 15 8 20 12 15 20 18
15 15 16 14 13 15 7 3 8 6 8 6 7 6 4 6 9 7 5 7 9 9 6 5 5 4 7 4 5 7 5 11 9 5 8 5 24 3 15 16 14 13 13 16 19
14 15 15 14 14 14 6 4 8 6 7 3 4 5 6 7 5 7 8 3 4 10 6 10 6 4 5 8 3 10 7 5 17 8 16 15 23 21 20 15 11 7 8 9 13
14 16 14 12 16 10 5 4 5 9 11 7 3 5 5 9 2 11 7 8 6 6 6 6 6 4 5 4 7 7 4 14 19 18 15 23 22 19 14 6 6 5 6 9 12
14 15 14 6 14 9 5 6 2 3 7 5 3 1 2 3 4 13 13 8 7 7 8 6 2 3 7 6 4 7 14 12 15 10 21 14 19 6 6 3 5 6 9 11 15
14 15 17 6 6 8 6 3 4 2 6 3 3 3 5 4 4 10 10 4 6 7 5 2 4 9 6 3 13 11 10 11 18 31 7 7 6 4 4 3 7 7 8 10 13
13 14 15 4 8 1 4 6 4 2 6 9 7 6 9 3 3 3 10 3 9 6 6 4 5 9 5 7 11 10 7 21 22 13 3 5 7 6 3 6 9 13 17 18 18
12 11 10 11 5 3 3 4 2 3 6 6 5 2 8 8 6 13 7 7 3 6 7 7 6 8 5 10 12 8 17 23 13 0 5 4 3 8 4 6 12 17 19 18 19
10 9 5 5 4 0 2 3 4 7 4 5 4 7 7 8 6 7 8 8 2 4 1 6 4 2 3 14 9 11 14 10 2 3 4 5 5 7 2 3 9 16 18 19 22
9 7 4 2 1 1 3 3 6 10 3 8 6 7 3 7 5 8 6 9 8 9 10 9 4 4 3 6 6 10 10 7 10 7 6 3 8 11 5 3 13 24 24 23 22
8 4 4 3 1 4 3 4 12 1 3 3 6 7 5 9 4 9 6 6 6 5 3 5 10 5 7 4 5 5 5 5 6 9 18 17 8 8 3 11 22 29 26 26 24
3 3 3 4 2 3 4 10 3 2 2 6 6 4 5 5 2 8 5 2 3 2 4 5 7 3 6 3 5 6 5 2 6 7 3 6 9 5 9 19 24 27 27 26 25
3 2 3 7 3 4 8 5 3 1 0 1 2 4 4 6 7 7 4 4 4 3 4 4 8 4 4 1 3 5 3 5 3 7 9 8 7 6 14 28 28 29 28 28 28
4 4 3 5 4 8 7 2 2 1 1 2 1 2 3 3 1 2 4 5 1 5 2 4 3 8 5 2 3 2 4 2 3 4 5 9 6 6 17 28 29 28 28 28 27
3 3 4 3 7 3 3 4 2 1 3 1 3 4 4 2 3 3 3 5 2 2 2 3 3 4 8 6 4 2 3 3 3 5 6 6 10 5 23 26 24 27 28 27 22
3 1 3 4 5 3 1 3 1 1 0 1 1 1 3 3 3 4 4 3 4 6 2 3 2 6 10 6 4 2 3 3 8 8 7 5 11 15 25 25 27 27 29 26 25
4 3 5 6 2 7 4 2 2 2 2 1 1 3 3 3 3 4 4 4 10 3 8 3 2 8 7 12 9 14 9 4 5 5 10 14 23 27 29 33 32 31 28 24 25
4 0 2 2 4 4 4 2 2 1 2 0 1 1 4 2 4 4 4 6 4 5 5 4 4 5 12 19 15 9 3 6 5 12 7 15 24 27 30 31 30 28 26 28 27
5 5 4 2 2 4 2 3 4 2 4 2 3 3 5 5 8 6 2 2 6 5 6 2 5 10 13 1 4 5 1 13 9 8 14 14 21 25 27 26 27 27 24 29 27
1 3 6 3 2 4 3 5 4 4 2 4 4 0 4 8 9 12 10 9 8 2 3 2 3 5 7 7 3 3 5 11 16 15 8 8 24 29 32 32 33 23 29 28 26
Wind_Direction
29 27 25 23 18 21 22 25 30 35 62 58 85 70 45 39 43 41 42 4 355 352 349 331 346 343 3 23 8 336 273 276 338 18 337 353 347 24 326 296 317 6 307 322 337
29 27 25 24 22 26 24 45 46 64 64 64 85 87 30 8 51 41 4 360 352 354 349 349 348 345 31 11 19 51 255 29 40 10 341 322 332 316 327 319 263 310 330 336 347
28 26 24 26 25 28 43 58 67 58 54 62 79 72 360 23 68 343 347 352 352 1 341 325 347 31 52 19 8 337 118 337 18 340 338 325 320 319 324 320 29 320 327 330 339
26 24 22 23 25 30 32 60 52 43 37 37 74 56 44 38 57 303 342 348 352 353 7 14 4 38 56 34 335 9 15 32 308 336 335 313 301 324 299 281 305 301 310 320 325
24 21 19 20 22 27 27 24 18 25 28 41 44 36 52 45 53 311 332 336 340 347 16 20 31 35 41 332 343 76 313 311 310 300 306 305 301 281 282 276 296 317 314 316 313
20 18 16 17 21 21 21 18 17 20 21 29 44 48 63 73 273 310 324 328 342 351 349 29 30 315 63 335 358 280 285 307 312 301 294 294 300 245 291 320 300 306 305 309 309
16 14 16 22 19 13 14 12 9 6 10 13 70 83 66 104 304 312 348 322 317 324 324 328 43 58 340 339 359 312 334 354 354 303 299 324 318 208 256 290 288 297 295 298 302
14 12 14 19 17 7 1 351 356 349 38 18 77 69 84 224 295 354 342 338 347 8 274 289 131 92 37 313 9 9 41 349 307 301 266 39 294 214 293 310 298 284 291 295 301
13 10 9 10 9 2 0 360 353 40 40 71 41 84 30 340 355 327 19 322 317 338 355 58 61 76 11 20 13 17 281 304 314 236 299 19 293 294 285 280 278 288 287 294 308
13 10 5 8 7 1 33 60 27 34 6 41 72 52 26 320 327 329 319 339 336 337 19 29 45 56 24 31 321 301 302 277 299 281 302 293 286 297 289 269 275 328 345 344 342
11 9 5 9 12 20 55 32 20 1 28 82 164 114 290 304 355 349 333 348 12 44 26 350 63 40 347 295 251 267 262 289 290 294 300 301 293 312 319 60 60 10 347 341 333
8 7 7 22 40 50 68 72 37 179 83 37 81 21 304 316 331 352 357 24 39 25 352 17 75 354 310 323 317 308 300 296 286 296 317 307 297 279 78 111 55 3 347 337 329
6 5 6 113 71 39 77 61 313 358 88 34 47 7 331 2 47 342 10 351 39 21 14 144 292 325 337 326 351 325 299 301 292 318 304 333 308 269 306 57 19 359 339 331 323
6 7 9 136 51 325 48 329 4 44 87 334 356 5 350 352 69 24 0 17 24 352 344 276 333 343 325 358 348 314 328 304 308 333 286 64 284 283 293 303 355 347 346 333 329
6 8 37 52 138 54 292 348 24 58 50 338 351 333 342 51 304 353 342 11 50 335 66 271 318 350 317 343 339 281 312 295 304 51 34 338 27 268 342 334 344 342 333 322 319
3 2 58 36 46 73 343 35 55 47 312 359 17 3 6 5 4 312 15 6 99 3 300 251 294 247 316 327 326 321 308 322 28 66 16 245 91 274 293 266 324 328 324 319 317
355 1 61 98 306 149 84 61 38 81 3 340 342 352 8 338 353 4 354 8 54 11 2 323 318 313 20 334 338 2 351 348 0 2 240 212 328 250 203 305 340 332 333 323 315
346 28 356 92 338 112 70 60 63 154 343 3 349 324 36 359 12 346 6 16 35 60 343 16 333 16 359 154 235 344 86 119 300 316 299 301 232 267 160 348 343 339 320 319 314
29 352 33 341 128 85 77 49 175 205 272 331 321 11 333 12 14 1 21 284 247 66 74 345 268 298 327 352 111 319 26 246 267 261 295 258 285 334 341 347 334 321 320 317 313
72 44 331 333 106 66 67 110 172 180 63 68 84 52 321 325 7 29 357 246 321 188 164 275 302 281 325 37 41 102 306 358 7 314 313 278 297 260 333 335 330 324 322 317 316
52 52 275 345 61 48 87 146 135 180 181 162 168 308 238 296 289 297 255 280 238 303 129 145 152 294 357 25 222 355 350 316 225 252 280 303 291 206 345 335 323 322 317 314 312
90 49 322 19 52 42 73 129 135 127 30 76 97 150 200 316 299 294 270 209 150 303 327 228 180 289 264 293 190 132 219 195 306 306 266 264 272 215 343 328 323 317 314 312 310
76 315 332 59 82 63 98 69 89 120 271 11 1 144 188 258 338 233 278 250 352 340 216 262 318 315 340 354 348 229 192 218 278 262 253 286 269 320 325 324 324 320 316 316 320
75 37 356 42 52 119 124 130 148 35 92 327 285 63 355 311 217 282 296 300 329 278 304 40 160 172 210 247 265 295 303 322 282 288 301 264 289 314 326 328 327 323 320 321 323
36 122 172 356 15 93 95 147 165 215 32 99 288 172 155 285 296 233 243 313 291 324 4 93 249 230 257 272 273 260 193 310 287 296 269 293 304 314 326 322 320 316 316 327 328
117 127 5 111 105 91 7 217 183 172 137 230 204 258 187 203 197 259 286 202 256 325 345 29 274 320 300 278 188 182 211 343 324 285 279 280 291 324 315 317 320 323 328 332 331
133 65 103 299 90 90 207 183 206 136 245 223 219 113 254 246 240 244 226 234 238 307 325 297 313 330 274 316 320 353 237 338 305 305 287 304 321 325 327 328 325 328 334 333 333